
◎C/2006 W3の軌道と予報位置

 間もなく,近日点を通過するこの彗星が明るく観測されています.天文ガイド
6月号に続く,スペインのゴンザレスの眼視全光度は,4月20日に9.2等,21日に
8.9等,5月2日に8.9等でした.近日点距離がq= 3.13 AUと大きな彗星ですが,
7月には7等級まで明るくなるでしょう.
 なお,彗星は,2005年4月に土星に4.43 AUまで接近しました.また,2009年
10月6日には,木星に2.57 AUまで接近します.

    C/2006 W3 (Christensen)
Epoch 2009 June 18.0 TT = JDT 2455000.5  
T 2009 July 6.65853 TT                                  Nakano
q   3.1261841            (2000.0)            P               Q
z  -0.0000125      Peri.  133.51934     +0.67605021     -0.09048008
 +/-0.0000005      Node   113.57298     -0.64879872     -0.54355849
e   1.0000391      Incl.  127.07381     +0.34930836     -0.83448039
From 2472 observations 2006 Oct. 29-2009 May 2, mean residual 0".53.
   (1/a)org.= +0.000367, (1/a)fut.= +0.000235 (+/-0.000000), Q= 8.
   The comet has passed 4.43 AU from Saturn on 2005 Apr. 4 and will
   pass 2.57 AU from Jupiter on 2009 Oct. 6 UT.

2009/        α  (2000) δ      △      r    Daily motion  Elong. Phase    m1 
 27h JST    h  m       。  ,        AU      AU      ,     。     。      。      等
May   5   22 52.10  +34 35.7    3.635   3.184     2.3/333    56.1   15.2    8.7
      6   22 52.01  +34 37.7    3.621   3.182     2.4/329    56.7   15.4    8.6
      7   22 51.91  +34 39.8    3.608   3.180     2.6/324    57.4   15.5    8.6
      8   22 51.79  +34 41.8    3.594   3.178     2.7/320    58.1   15.6    8.6
      9   22 51.65  +34 43.9    3.580   3.176     2.9/317    58.8   15.8    8.6
     10   22 51.49  +34 46.1    3.566   3.175     3.1/314    59.5   15.9    8.6
     11   22 51.31  +34 48.2    3.551   3.173     3.3/311    60.2   16.0    8.6
     12   22 51.11  +34 50.3    3.537   3.171     3.5/308    60.9   16.2    8.6
     13   22 50.89  +34 52.4    3.522   3.170     3.7/305    61.7   16.3    8.6
     14   22 50.64  +34 54.6    3.508   3.168     3.9/303    62.4   16.4    8.5
     15   22 50.38  +34 56.7    3.493   3.167     4.1/301    63.1   16.5    8.5
     16   22 50.09  +34 58.8    3.478   3.165     4.4/299    63.9   16.7    8.5
     17   22 49.78  +35 01.0    3.462   3.164     4.6/297    64.6   16.8    8.5
     18   22 49.44  +35 03.1    3.447   3.162     4.9/295    65.4   16.9    8.5
     19   22 49.08  +35 05.1    3.431   3.161     5.1/294    66.2   17.0    8.5
     20   22 48.70  +35 07.2    3.416   3.159     5.4/292    66.9   17.1    8.5
     21   22 48.29  +35 09.3    3.400   3.158     5.7/291    67.7   17.3    8.4
     22   22 47.86  +35 11.3    3.384   3.157     6.0/289    68.5   17.4    8.4
     23   22 47.40  +35 13.2    3.368   3.155     6.3/288    69.3   17.5    8.4
     24   22 46.91  +35 15.2    3.352   3.154     6.6/287    70.1   17.6    8.4
     25   22 46.40  +35 17.1    3.335   3.153     6.9/286    70.9   17.7    8.4
     26   22 45.86  +35 18.9    3.319   3.151     7.2/284    71.7   17.8    8.4
     27   22 45.29  +35 20.7    3.302   3.150     7.5/283    72.5   17.9    8.4
     28   22 44.70  +35 22.4    3.286   3.149     7.8/282    73.4   18.0    8.4
     29   22 44.07  +35 24.1    3.269   3.148     8.1/281    74.2   18.1    8.3
     30   22 43.42  +35 25.7    3.252   3.147     8.5/280    75.0   18.1    8.3
     31   22 42.74  +35 27.2    3.235   3.146     8.8/279    75.9   18.2    8.3
June  1   22 42.02  +35 28.6    3.218   3.145     9.2/278    76.7   18.3    8.3
      2   22 41.28  +35 29.9    3.201   3.144     9.5/277    77.6   18.4    8.3
      3   22 40.50  +35 31.1    3.184   3.143     9.9/277    78.5   18.4    8.3
      4   22 39.70  +35 32.2    3.167   3.142    10.3/276    79.3   18.5    8.3
      5   22 38.86  +35 33.2    3.150   3.141    10.7/275    80.2   18.6    8.2
      6   22 37.99  +35 34.1    3.132   3.140    11.1/274    81.1   18.6    8.2
      7   22 37.08  +35 34.9    3.115   3.139    11.5/273    82.0   18.7    8.2
      8   22 36.14  +35 35.5    3.098   3.138    11.9/272    82.9   18.7    8.2
      9   22 35.17  +35 36.0    3.080   3.137    12.3/272    83.8   18.8    8.2
     10   22 34.17  +35 36.4    3.063   3.136    12.7/271    84.7   18.8    8.2
     11   22 33.13  +35 36.5    3.046   3.136    13.1/270    85.6   18.8    8.2
     12   22 32.05  +35 36.6    3.028   3.135    13.6/269    86.5   18.9    8.1
     13   22 30.94  +35 36.4    3.011   3.134    14.0/269    87.4   18.9    8.1
     14   22 29.79  +35 36.1    2.993   3.133    14.4/268    88.4   18.9    8.1
     15   22 28.61  +35 35.5    2.976   3.133    14.9/267    89.3   18.9    8.1
     16   22 27.39  +35 34.8    2.959   3.132    15.4/267    90.2   18.9    8.1
     17   22 26.13  +35 33.8    2.941   3.132    15.8/266    91.2   18.9    8.1
     18   22 24.83  +35 32.7    2.924   3.131    16.3/265    92.1   18.9    8.1
     19   22 23.50  +35 31.2    2.907   3.131    16.8/264    93.1   18.9    8.0
     20   22 22.13  +35 29.6    2.889   3.130    17.3/264    94.1   18.9    8.0
     21   22 20.72  +35 27.7    2.872   3.130    17.8/263    95.0   18.9    8.0
     22   22 19.27  +35 25.5    2.855   3.129    18.3/262    96.0   18.8    8.0
     23   22 17.79  +35 23.0    2.838   3.129    18.9/262    97.0   18.8    8.0
     24   22 16.26  +35 20.2    2.821   3.128    19.4/261    98.0   18.8    8.0
     25   22 14.70  +35 17.1    2.805   3.128    19.9/260    98.9   18.7    8.0
     26   22 13.10  +35 13.7    2.788   3.128    20.5/260    99.9   18.7    7.9
     27   22 11.45  +35 10.0    2.771   3.127    21.0/259   100.9   18.6    7.9
     28   22 09.78  +35 05.9    2.755   3.127    21.6/258   101.9   18.5    7.9
     29   22 08.06  +35 01.5    2.738   3.127    22.1/258   102.9   18.5    7.9
     30   22 06.30  +34 56.7    2.722   3.127    22.7/257   103.9   18.4    7.9
July  1   22 04.51  +34 51.5    2.706   3.127    23.2/256   104.9   18.3    7.9
      2   22 02.68  +34 45.9    2.690   3.126    23.8/256   105.9   18.2    7.9
      3   22 00.81  +34 39.9    2.675   3.126    24.4/255   107.0   18.1    7.8
      4   21 58.90  +34 33.5    2.659   3.126    24.9/254   108.0   18.0    7.8
      5   21 56.96  +34 26.7    2.644   3.126    25.5/254   109.0   17.9    7.8
      6   21 54.99  +34 19.4    2.629   3.126    26.1/253   110.0   17.8    7.8
      7   21 52.98  +34 11.7    2.614   3.126    26.7/252   111.0   17.7    7.8
      8   21 50.93  +34 03.4    2.599   3.126    27.3/252   112.0   17.5    7.8
      9   21 48.85  +33 54.7    2.585   3.126    27.9/251   113.1   17.4    7.8
     10   21 46.74  +33 45.5    2.571   3.126    28.5/250   114.1   17.3    7.8
     11   21 44.59  +33 35.8    2.557   3.127    29.1/250   115.1   17.1    7.7
     12   21 42.42  +33 25.6    2.543   3.127    29.6/249   116.1   17.0    7.7
     13   21 40.22  +33 14.9    2.530   3.127    30.2/248   117.1   16.8    7.7
     14   21 37.98  +33 03.6    2.517   3.127    30.8/248   118.1   16.7    7.7
     15   21 35.72  +32 51.7    2.504   3.127    31.4/247   119.1   16.5    7.7
     16   21 33.44  +32 39.3    2.492   3.128    32.0/246   120.1   16.3    7.7
     17   21 31.12  +32 26.4    2.480   3.128    32.5/246   121.1   16.2    7.7
     18   21 28.79  +32 12.8    2.468   3.128    33.1/245   122.1   16.0    7.7
     19   21 26.43  +31 58.7    2.456   3.129    33.7/244   123.0   15.8    7.7
     20   21 24.06  +31 44.0    2.445   3.129    34.2/244   124.0   15.6    7.7
                    m1 = -3.2 + 5 log △ + 18.0 log r
NAKANO
         **** Don't distribute anyone except personal use only ****
                (C) Copyright 2009 OAA/ComputingSection
write mail from CFAD0::NAKANO on 2009-05-05 03:46:51(JST).
 


    C/2006 W3 (Christensen)

Epoch 2009 June 18.0 TT = JDT 2455000.5  

T 2009 July 6.65848 TT                                  Nakano

q   3.1262107            (2000.0)            P               Q

z  -0.0000147      Peri.  133.51869     +0.67604782     -0.09047418

 +/-0.0000005      Node   113.57275     -0.64879617     -0.54356446

e   1.0000459      Incl.  127.07364     +0.34931773     -0.83447715

From 1436 observations 2006 Oct. 29-2008 Nov. 3, mean residual 0".48.

   (1/a)org.= +0.000365, (1/a)fut.= +0.000232 (+/-0.000001), Q= 8.

   The comet has passed 2.57 AU from Jupiter on 2009 Oct. 6 UT.


NAKANO

         **** Don't distribute anyone except personal use only ****

                (C) Copyright 2008 OAA/ComputingSection

write mail from CFAD0::NAKANO on 2008-11-05 05:02:00(JST).

 

    C/2006 W3 (Christensen)

Epoch 2009 June 18.0 TT = JDT 2455000.5  

T 2009 July 6.66115 TT                                  Nakano

q   3.1262133            (2000.0)            P               Q

z  -0.0000118      Peri.  133.51882     +0.67604614     -0.09047645

 +/-0.0000010      Node   113.57265     -0.64879894     -0.54356240

e   1.0000369      Incl.  127.07356     +0.34931583     -0.83447824

From 751 observations 2006 Oct. 29-2008 July 29, mean residual 0".49.

   (1/a)org.= +0.000368, (1/a)fut.= +0.000235 (+/-0.000001), Q= 8.

   The comet will pass 2.57 AU from Jupiter on 2009 Oct. 6 UT.



NAKANO

         **** Don't distribute anyone except personal use only ****

                (C) Copyright 2008 OAA/ComputingSection

write mail from CFAD0::NAKANO on 2008-08-02 06:17:05(JST).

    C/2006 W3 (Christensen)

Epoch 2009 June 18.0 TT = JDT 2455000.5  

T 2009 July 6.65911 TT                                  Nakano

q   3.1261587            (2000.0)            P               Q

z  -0.0000097      Peri.  133.51975     +0.67604647     -0.09048712

 +/-0.0000026      Node   113.57275     -0.64880603     -0.54355268

e   1.0000303      Incl.  127.07368     +0.34930203     -0.83448341

From 518 observations 2006 Oct. 29-2008 Feb. 13, mean residual 0".52.

   (1/a)org.= +0.000370, (1/a)fut.= +0.000237 (+/-0.000003), Q= 7.

   The comet will pass 2.57 AU from Jupiter on 2009 Oct. 6.0 UT.



NAKANO

         **** Don't distribute anyone except personal use only ****

                (C) Copyright 2008 OAA/ComputingSection

write mail from CFAD0::NAKANO on 2008-02-15 03:48:10(JST).





***  The comet will pass 2.57 AU from Jupiter on 2009 Oct. 6.  ***



    C/2006 W3 (Christensen)

